PulseSat

PulseSat

RADUGA 24 [-]

Last updated on March 21, 2019, 3:13 a.m. UTC

1 20367U 89098A   19077.81368731 -.00000171  00000-0  00000-0 0  9993
2 20367  15.0172 355.8945 0004042 315.9181 235.9097  1.00339194106487
UTC
Height (km)
Latitude
Longitude
Inclination
Orbital Period

Next 30 passes for location: Hong Kong

Rise time Rise Azimuth (degrees) Set time Set Azimuth (degrees) Duration Max altitude (degrees)

No matching passes for this satellites

PulseSat

PulseSat is the new satellites software and hardware trackering solution by Pulsely.
Satellite Two Line Element Set source: US Air Force Space Command

Download PulseSat for iOS
© 2017 Pulsely Limited